Location: Newark
(52.4787°S, 179.0532°W)
Time: 02:56:23
(UTC+00:00)

Vanguard 1 - Pass Details

Date: 25 November 2019
Orbit: 652 x 3832 km, 34.3° (Epoch: 10 December)

Event Time Altitude Azimuth Distance (km) Brightness Sun altitude
Rises 10:40:59 0° 297° (WNW) 5,058 13.6 -15.5°
Reaches altitude 10° 10:44:03 10° 305° (NW) 4,428 13.2 -15.7°
Maximum altitude 10:55:51 40° 8° (N) 3,748 12.5 -16.1°
Drops below altitude 10° 11:14:15 10° 66° (ENE) 6,777 14.0 -16.5°
Sets 11:20:26 0° 72° (ENE) 7,952 14.5 -16.6°
